Location: El Atico
(3.0014°N, 75.4378°W)
Time: 23:35:26
(UTC+00:00)

Daily predictions for brighter satellites

Satellite Brightness Start Highest point End
(mag) Time Altitude Azimuth Time Altitude Azimuth Time Altitude Azimuth
ARIANE 5 R/B 4.1 22:48:36 10° W 22:53:14 82° S 23:37:13 10° E
Meteor 1-26 Rocket 4.2 23:06:46 10° S 23:12:22 73° E 23:17:47 10° N
DELTA 2 R/B (1) 4.2 23:07:25 10° WNW 23:12:53 61° SW 23:18:21 10° SE
Cosmos 1937 Rocket 3.6 23:08:48 10° SSW 23:14:05 90° E 23:19:16 10° NNE
Atlas Centaur 2 2.1 23:11:32 10° W 23:14:50 35° NNW 23:18:11 10° NE
Orbus 21S 3.6 23:16:05 10° N 23:17:08 12° NNE 23:18:20 10° ENE
SL-16 R/B 2.7 23:16:46 10° S 23:22:01 39° ESE 23:27:14 10° NE
Meteor 1-20 Rocket 4.4 23:17:01 10° N 23:22:28 78° W 23:28:02 10° S
ARIANE 5 R/B 2.9 23:19:28 10° S 23:24:25 68° WSW 23:29:23 10° NNW
IRS-P3 4.1 23:20:51 10° SSE 23:26:10 75° ENE 23:31:27 10° N
Cosmos 1953 Rocket 4.2 23:23:10 10° NNE 23:27:13 35° E 23:31:16 10° SSE
Ariane H10+ 2.7 23:17:27 10° W 23:27:51 73° N 23:32:49 11° E
Cosmos 1655 Rocket 4.1 23:22:43 10° N 23:28:46 55° E 23:34:50 10° SSE
Cosmos 2058 Rocket 4.2 23:27:44 10° SSW 23:32:00 48° W 23:36:17 10° NNW
CZ-4 R/B 4.2 23:29:58 10° SSE 23:33:53 67° E 23:37:47 10° N
Helios 1A Rocket 4.3 23:31:35 10° NNW 23:34:36 31° WNW 23:37:39 10° SW
SPOT 1/Viking Rocket 3.5 23:30:09 10° SSE 23:35:16 62° ENE 23:40:23 10° N
Cosmos 1825 Rocket 3.7 23:33:23 10° N 23:37:39 75° W 23:41:55 10° S
Cosmos 2297 Rocket 2.1 23:35:42 10° NNW 23:41:20 79° ENE 23:46:59 10° SSE
IUS-18 SRM-1 2.1 23:40:35 10° SW 23:43:01 77° SSE 23:46:45 18° ENE
Cosmos 1437 Rocket 4.1 23:41:44 10° SE 23:44:06 17° E 23:44:06 17° E
USA 276 3.7 23:43:52 10° W 23:44:41 14° SW 23:45:33 10° SSW
NOSS 3-1 (C) 2.9 23:41:17 10° S 23:45:42 47° ESE 23:48:32 19° NE
Cosmos 2278 3.7 23:40:18 10° S 23:45:55 62° ESE 23:51:22 11° NNE
Delta 168 3.6 23:42:33 10° NW 23:46:39 46° NNE 23:51:26 15° E
CZ-2D R/B 3.4 23:44:14 10° SSE 23:48:25 74° ENE 23:52:37 10° N
PSLV R/B 3.6 23:45:06 10° SSE 23:48:55 43° ENE 23:52:43 10° N
Intercosmos 25 4.1 23:47:08 10° S 23:51:21 63° E 23:58:02 10° N
USA 81 4.0 23:46:50 10° N 23:52:04 78° E 23:57:20 10° S
IUS-7 SRM-1 3.8 23:42:23 10° WSW 23:56:05 71° NNW 23:58:04 26° NE
CARTOSAT-1 4.2 23:52:23 10° SE 23:56:05 31° ENE 23:57:21 26° NE
